Regional Weather Roundup
Issued by NWS Newport/Morehead, NC

Current Version | Previous Version | Graphics & Text | Print | Product List | Glossary On
Versions: 1 2 3 4 5 6 7 8 9 10 11 12 13 14 15 16 17 18 19 20 21 22 23 24 25 26 27 28 29 30 31 32 33 34 35 36 37 38 39 40 41 42 43 44 45 46 47 48 49 50
000 ASUS42 KMHX 270210 RWRMHX WEATHER ROUNDUP FOR EASTERN NORTH CAROLINA NATIONAL WEATHER SERVICE NEWPORT/MOREHEAD CITY NC 900 PM EST FRI DEC 26 2014 NOTE: "FAIR" INDICATES FEW OR NO CLOUDS BELOW 12,000 FEET WITH NO SIGNIFICANT WEATHER AND/OR OBSTRUCTIONS TO VISIBILITY NCZ015>017-031-032-045>047-102-103-270300- NORTH COAST CITY SKY/WX TMP DP RH WIND PRES REMARKS EDENTON N/A 37 35 91 CALM 30.33S ELIZABETH CITY CLEAR 43 36 76 CALM 30.33R KITTY HAWK CLEAR 46 40 78 CALM 30.30S MANTEO CLEAR 39 37 93 CALM 30.32S $$ NCZ045>047-081-094-103-104-270300- CENTRAL COAST CITY SKY/WX TMP DP RH WIND PRES REMARKS FRISCO CLEAR 39 38 96 CALM 30.32S SWANQUARTER N/A 41 N/A N/A CALM 30.30R $$ NCZ095-097-098-100-101-270300- SOUTHERN COAST CITY SKY/WX TMP DP RH WIND PRES REMARKS BEAUFORT CLEAR 41 39 93 CALM 30.33S CEDAR ISLAND N/A 43 N/A N/A SE1 30.36S JACKSONVILLE NOT AVBL PINEY ISLAND CLEAR 49 40 71 S3 30.32S WILMINGTON CLEAR 42 40 92 CALM 30.33R $$ NCZ011>013-027>030-043-044-078>080-089-090>093-098-270300- COASTAL PLAIN CITY SKY/WX TMP DP RH WIND PRES REMARKS AHOSKIE PTCLDY 36 34 95 CALM 30.32F CLINTON CLEAR 40 39 99 CALM 30.33F ELIZABETHTOWN CLEAR 41 38 87 CALM 30.33R GOLDSBORO CLEAR 39 39 98 CALM 30.31S GREENVILLE CLEAR 37 37 100 CALM 30.33R HAVELOCK CLEAR 39 37 92 CALM 30.34R KENANSVILLE CLEAR 37 36 97 CALM 30.34S KINSTON CLEAR 36 36 100 CALM 30.34R NEW BERN CLEAR 42 37 82 CALM 30.34R RICHLANDS CLEAR 37 34 87 CALM 30.34R ROCKY MOUNT CLEAR 38 36 92 CALM 30.32R WASHINGTON CLEAR 39 37 91 CALM 30.34R WHITEVILLE CLEAR 42 39 90 CALM 30.33R $$ AMZ130-135-150-152-154-156-158-170-250-252-270-ANZ085-086-088-633-658-670-270300- MARINE OBSERVATIONS STATION/POSITION TIME TEMP WIND PRES WAVE SWELL AIR SEA DIR/SP/G HT/PER HT/PER (UTC) (F) (DEG/KT/KT) (MB) (FT/S) (FT/S) CHESAPEAKE LIGHT 0100 48 110/ 7/ 7 1027.1 64 E VA BEACH 0200 50 52 100/ 2/ 2 1026.2 2/12 2/12 DUCK 0200 51 51 250/ 5/ 6 N/A 2 E DUCK 0200 50 N/A 2/13 2/13 10 NE DUCK 0200 51 N/A 2/13 2/13 OREGON INLET 0200 49 53 90/ 2/ 2 N/A 13E OREGON INLT 0200 50 N/A 3/ 8 2/13 HATTERAS CG 0200 52 56 310/ 3/ 3 N/A DIAMOND BUOY 0200 55 1026.8 3/ 9 17 S OCRACOKE NOT AVBL CAPE LOOKOUT 0100 54 20/ 5/ 5 1026.6 BEAUFORT LAB 0200 48 55 CALM / 2 N/A 30 SE NEW RIVER 0200 57 61 20/ 2/ 4 1027.0 2/ 8 2/ 8 5 SE WRIGHTSVLE NOT AVBL 225 S CAPE HAT 0142 67 74 90/ 6/ 10 1026.4 41 SE CHARLESTON 0200 63 72 20/ 10/ 14 1025.6 3/ 8 2/ 8 $$

USA.gov is the U.S. government's official web portal to all federal, state and local government web resources and services.